Location: Firdgum
(53.2488°N, 5.5615°E)
Time: 01:24:13
(UTC+00:00)

ADEOS Rocket - Pass Details

Date: 08 December 2019
Orbit: 859 x 1307 km, 98.7° (Epoch: 28 January)

Event Time Altitude Azimuth Distance (km) Brightness Sun altitude
Rises 06:19:16 0° 174° (S) 4,095 6.7 -10.9°
Reaches altitude 10° 06:22:03 10° 178° (S) 3,078 6.0 -10.6°
Maximum altitude 06:28:58 62° 258° (WSW) 1,212 3.3 -9.6°
Drops below altitude 10° 06:35:13 10° 339° (NNW) 2,784 5.0 -8.8°
Sets 06:37:37 0° 343° (NNW) 3,681 5.6 -8.5°
